Location: Saint-Palais-sur-Mer
(45.6429°N, 1.0859°W)
Time: 01:00:40
(UTC+01:00)

Tiros 1 despin weight - Pass Details

Date: 12 February 2026
Orbit: 556 x 593 km, 48.2° (Epoch: 13 March)

Event Time Altitude Azimuth Distance (km) Brightness Sun altitude
Rises 17:51:03 0° 218° (SW) 2,723 ? 4.9°
Reaches altitude 10° 17:53:27 10° 208° (SSW) 1,830 ? 4.6°
Maximum altitude 17:57:10 32° 145° (SE) 973 ? 4.0°
Drops below altitude 10° 18:00:54 10° 82° (E) 1,838 ? 3.4°
Sets 18:03:19 0° 73° (ENE) 2,738 ? 3.0°
